Location: Boitzum
(52.1496°N, 9.6943°E)
Time: 17:53:01
(UTC+00:00)

Cosmos 614 Rocket - Visible Passes

Search period start: 11 April 2026 00:00
Search period end: 21 April 2026 00:00
Orbit: 727 x 758 km, 74.1° (Epoch: 11 April)

Date Brightness Start Highest point End Pass type
(mag) Time Alt. Az. Time Alt. Az. Time Alt. Az.
11 Apr 4.4 20:07:00 10° NNW 20:12:01 47° ENE 20:14:15 29° ESE visible
11 Apr 5.1 21:48:49 10° NW 21:53:23 32° WSW 21:53:59 31° WSW visible
12 Apr 5.1 19:22:29 10° N 19:27:00 29° NE 19:30:33 14° ESE visible
12 Apr 4.3 21:03:47 10° NNW 21:08:52 58° WSW 21:10:17 43° SSW visible
13 Apr 3.9 20:18:59 10° NNW 20:24:12 81° ENE 20:26:36 33° SSE visible
13 Apr 5.9 22:01:40 10° NW 22:05:02 18° W 22:06:20 16° WSW visible
14 Apr 4.4 19:34:20 10° NNW 19:39:22 47° ENE 19:42:57 18° SE visible
14 Apr 5.3 21:16:10 10° NW 21:20:42 31° WSW 21:22:42 24° SW visible
15 Apr 5.1 18:49:48 10° N 18:54:21 29° NE 18:58:50 10° ESE visible
15 Apr 4.4 20:31:08 10° NNW 20:36:12 56° WSW 20:39:04 25° S visible
16 Apr 3.9 19:46:19 10° NNW 19:51:32 83° ENE 19:55:30 17° SSE visible
16 Apr 6.2 21:29:02 10° NW 21:32:21 17° W 21:35:14 11° SW visible
17 Apr 4.4 19:01:39 10° NNW 19:06:41 48° ENE 19:11:39 10° SE visible
17 Apr 5.4 20:43:31 10° NW 20:48:01 31° WSW 20:51:42 14° SSW visible
18 Apr 4.5 19:58:28 10° NNW 20:03:31 55° WSW 20:08:12 12° S visible
19 Apr 4.0 19:13:39 10° NNW 19:18:51 84° ENE 19:23:59 10° SSE visible
19 Apr 6.3 20:56:25 10° NW 20:59:40 17° W 21:02:52 10° SW visible
20 Apr 5.6 20:10:52 10° NW 20:15:20 30° WSW 20:19:44 10° SSW visible
